OneWeb SL0273

operational
NORAD ID: 48991 Int'l Des: 2021-060 Owner: ONEWEBN Country: UK Constellation: oneweb
LEOCIRCULARPOLARONEWEB_TYPE

About OneWeb SL0273

Description loading...

Live Position

Loading 3D Globe...

Upcoming Passes

Altitude History

Altitude vs Time

uPlot chart will show altitude changes over time

Two-Line Element Set

1 48991U 21060AA 26061.05946201 .00000032 00000-0 50576-4 0 9994
2 48991 87.9001 250.0953 0001701 99.2311 260.9012 13.16592909225493
Epoch: Mar 2, 2026 • Age: 36 hours

Current Status

Altitude 1202.6 km
Velocity 7.26 km/s
Sub-Earth Point 39.23°N, 93.97°W
Launch Date Jul 1, 2021
Age 4.6 years
Type internet

Technical Details

Classification Payload
Mass 148.00 kg
Dry Mass 140.00 kg
Total Mass 148.00 kg
Length 1.30 m
Diameter 1.00 m
Span 5.00 m
Shape Trapezoid+2 pan
Manufacturer ONEWUS
Bus Type ARROW
Phase Status In Orbit
Owner/State ONEWEBN/UK

Large Constellations

Loading constellations...